Weather History for Oakland, CA

Change the Weather History Date:

Friday, August 16, 2013

  Actual Average Record
Temperature  
Mean Temperature 66 °F 64 °F  
Max Temperature 74 °F 72 °F 85 °F (1960)
Min Temperature 58 °F 56 °F 50 °F (1973)
Degree Days  
Heating Degree Days 0 2  
Month to date heating degree days 29 33  
Since 1 June heating degree days 133 219  
Since 1 July heating degree days 73 116  
Cooling Degree Days 1 1  
Month to date cooling degree days 10 8  
Year to date cooling degree days 115 60  
Since 1 June cooling degree days 74 44  
Growing Degree Days 15 (Base 50)    
Moisture  
Dew Point 61 °F    
Average Humidity 84    
Maximum Humidity 100    
Minimum Humidity 68    
Precipitation  
Precipitation 0.00 in 0.00 in 0.01 in (1966)
Month to date precipitation T 0.01  
Year to date precipitation 2.82 13.24  
Since 1 July precipitation T 0.02  
Sea Level Pressure  
Sea Level Pressure 29.98 in    
Wind  
Wind Speed 8 mph (West)    
Max Wind Speed 20 mph    
Max Gust Speed 24 mph    
Visibility 10 miles    
Events      
T = Trace of Precipitation, MM = Missing Value Source: NWS Daily Summary

Daily Weather History Graph

Daily Weather History Graph

Search for Another Location

Airport:

Trip Planner

Search our weather history database for the weather conditions in past years. The results will help you decide how hot, cold, wet, or windy it might be!

Date:

Astronomy

Aug. 16, 2013 Rise Set
Actual Time 6:25 AM PDT 7:59 PM PDT
Civil Twilight 5:57 AM PDT 8:27 PM PDT
Nautical Twilight 5:24 AM PDT 9:01 PM PDT
Astronomical Twilight 4:48 AM PDT 9:36 PM PDT
Moon 4:22 PM PDT (8/16) 1:35 AM PDT (8/16)
Length of Visible Light 14h 29m
Length of Day
13h 34m
Waxing Gibbous, 76% of the Moon is Illuminated
Aug 16
Waxing Gibbous
Aug 20
Full
Aug 28
Last Quarter
Sep 5
New
Sep 12
First Quarter

Hourly Weather History & Observations

Time (PDT) Temp. Dew Point Humidity Pressure Visibility Wind Dir Wind Speed Gust Speed Precip Events Conditions
12:53 AM 61.0 °F 59.0 °F 93% 29.98 in 10.0 mi West 5.8 mph - N/A   Overcast
1:53 AM 61.0 °F 59.0 °F 93% 29.97 in 10.0 mi West 3.5 mph - N/A   Overcast
2:53 AM 61.0 °F 59.0 °F 93% 29.96 in 10.0 mi Calm Calm - N/A   Overcast
3:53 AM 61.0 °F 59.0 °F 93% 29.96 in 10.0 mi Calm Calm - N/A   Overcast
4:19 AM 60.8 °F 59.0 °F 94% 29.96 in 10.0 mi Calm Calm - N/A   Overcast
4:53 AM 62.1 °F 57.9 °F 86% 29.96 in 10.0 mi Calm Calm - N/A   Overcast
5:40 AM 62.6 °F 59.0 °F 88% 29.97 in 7.0 mi Calm Calm - N/A   Overcast
5:53 AM 63.0 °F 60.1 °F 90% 29.96 in 7.0 mi WSW 3.5 mph - N/A   Overcast
6:53 AM 61.0 °F 59.0 °F 93% 29.98 in 10.0 mi WNW 6.9 mph - N/A   Overcast
7:22 AM 60.8 °F 59.0 °F 94% 29.99 in 10.0 mi WNW 8.1 mph - N/A   Overcast
7:53 AM 61.0 °F 59.0 °F 93% 29.99 in 10.0 mi WNW 6.9 mph - N/A   Mostly Cloudy
8:53 AM 62.1 °F 62.1 °F 100% 30.00 in 10.0 mi West 5.8 mph - N/A   Mostly Cloudy
9:53 AM 64.0 °F 63.0 °F 96% 30.00 in 10.0 mi WSW 5.8 mph - N/A   Mostly Cloudy
10:53 AM 66.0 °F 64.0 °F 93% 30.00 in 10.0 mi West 8.1 mph - N/A   Partly Cloudy
11:53 AM 71.1 °F 64.0 °F 78% 30.00 in 10.0 mi West 10.4 mph - N/A   Partly Cloudy
12:53 PM 72.0 °F 63.0 °F 73% 30.01 in 10.0 mi West 9.2 mph - N/A   Partly Cloudy
1:53 PM 73.9 °F 62.1 °F 66% 30.00 in 10.0 mi WNW 9.2 mph - N/A   Partly Cloudy
2:53 PM 73.0 °F 63.0 °F 71% 29.99 in 10.0 mi West 15.0 mph - N/A   Partly Cloudy
3:53 PM 72.0 °F 63.0 °F 73% 29.98 in 10.0 mi WNW 13.8 mph - N/A   Scattered Clouds
4:53 PM 70.0 °F 63.0 °F 78% 29.97 in 10.0 mi West 11.5 mph - N/A   Scattered Clouds
5:53 PM 66.9 °F 64.0 °F 90% 29.97 in 10.0 mi West 13.8 mph - N/A   Scattered Clouds
6:53 PM 64.9 °F 64.0 °F 97% 29.97 in 10.0 mi West 18.4 mph - N/A   Scattered Clouds
7:53 PM 61.0 °F 61.0 °F 100% 29.97 in 10.0 mi West 13.8 mph - N/A   Scattered Clouds
8:53 PM 61.0 °F 61.0 °F 100% 29.98 in 10.0 mi West 16.1 mph - N/A   Scattered Clouds
9:53 PM 60.1 °F 60.1 °F 100% 29.99 in 10.0 mi West 11.5 mph - N/A   Scattered Clouds
10:53 PM 60.1 °F 60.1 °F 100% 29.99 in 10.0 mi WSW 6.9 mph - N/A   Scattered Clouds
11:23 PM 60.8 °F 60.8 °F 100% 30.00 in 10.0 mi WNW 6.9 mph - N/A   Mostly Cloudy
11:48 PM 57.2 °F 57.2 °F 100% 30.00 in 10.0 mi NW 3.5 mph - N/A   Mostly Cloudy
11:53 PM 57.9 °F 57.9 °F 100% 29.99 in 10.0 mi Calm Calm - N/A   Mostly Cloudy